Regional Weather Roundup
Issued by NWS

Current Version | Previous Version | Text Only | Print | Product List | Glossary On
Versions: 1 2 3 4 5 6 7 8 9 10 11 12 13 14 15 16 17 18 19 20 21 22 23 24 25 26 27 28 29 30 31 32 33 34 35 36 37 38 39 40 41 42 43 44 45 46 47 48 49 50
458
ASUS44 KFWD 200315
RWRTX
NORTH TEXAS HOURLY WEATHER ROUNDUP
NATIONAL WEATHER SERVICE FORT WORTH TX
900 PM CST FRI JAN 19 2018

NOTE: "FAIR" INDICATES FEW OR NO CLOUDS BELOW 12,000 FEET WITH NO
SIGNIFICANT WEATHER AND/OR OBSTRUCTIONS TO VISIBILITY.

TXZ118-119-200400-
DALLAS/FORT WORTH METROPLEX

CITY           SKY/WX    TMP DP  RH WIND       PRES   REMARKS
DFW AIRPORT    CLOUDY    54  43  66 S13       30.04S
DALLAS LOVE    CLOUDY    53  42  66 S10       30.05F
FTW MEACHAM    CLOUDY    52  43  71 S15       30.03S
DAL-EXECUTIVE  CLOUDY    52  43  71 S9        30.05S
FTW-ALLIANCE   MOCLDY    51  43  74 S14G23    30.03S
FTW-NAS-JRB    CLOUDY    52  42  69 S13       30.04S
FTW-SPINKS     CLOUDY    51  42  71 S10       30.06S
ARLINGTON      CLOUDY    51  42  71 S12       30.05S
GRAND PRAIRIE  MOCLDY    51  41  67 S8        30.07S
ADDISON        CLOUDY    52  41  66 S12G22    30.06S
MESQUITE       CLOUDY    50  38  64 S7        30.07F
LANCASTER      CLOUDY    50  39  66 S6        30.08S
$$

TXZ091>094-102>105-117-120-121-131>134-200400-
NORTH CENTRAL TEXAS

CITY           SKY/WX    TMP DP  RH WIND       PRES   REMARKS
SHRMAN/DENISON CLOUDY    50  40  69 S15       30.03S
GAINESVILLE    CLOUDY    50  41  70 S16G22    30.03R
BOWIE          CLOUDY    51  46  80 S16G25    29.97R
BRIDGEPORT     CLOUDY    54  48  80 S15G22    30.02R
DECATUR        CLOUDY    51  46  83 S17G24    30.00R
DENTON         CLOUDY    51  43  74 S15       30.03S
MCKINNEY       CLOUDY    50  41  71 S12       30.05F
BONHAM         CLOUDY    49  37  63 S13       30.06S
GREENVILLE     CLOUDY    52  39  62 S7        30.08S
ROCKWALL       CLOUDY    50  39  67 SE7       30.07S
TERRELL        MOCLDY    49  38  65 S7        30.08F
WAXAHACHIE     CLOUDY    50  43  76 SE7       30.07F
CLEBURNE       CLOUDY    50  43  76 S10       30.06S
GRANBURY       CLOUDY    53  47  81 SE14      30.04F
$$

TXZ083>090-098>101-113>116-127>130-139>142-154-155-200400-
WESTERN NORTH TEXAS

CITY           SKY/WX    TMP DP  RH WIND       PRES   REMARKS
WICHITA FALLS  FAIR      52  45  77 S20       29.91R
WF-KICKAPOO    FAIR      52  46  78 S17       29.94R
VERNON         FAIR      49  23  36 S13       29.88R
ABILENE        FAIR      53  43  68 S17G26    29.94R
ABILENE-DYESS  FAIR      55  40  56 S22G28    29.92F
GRAHAM           N/A     52  47  84 SE10G18   29.95R
BRECKENRIDGE   FAIR      54  47  77 S17G26    29.96R
CISCO          FAIR      50  48  93 S21G29    29.96S
EASTLAND       MOCLDY    51  48  88 S15G21    29.97S
RANGER         CLOUDY    54  50  87 S17G30    29.98R
MINERAL WELLS  CLOUDY    53  48  83 S16G25    30.00R
STEPHENVILLE   CLOUDY    51  48  87 S13G26    30.03S
COMANCHE       CLOUDY    54  51  89 S16G30    30.01S
BROWNWOOD      CLOUDY    54  48  82 S10G16    30.01S
COLEMAN        FAIR      51  46  81 S15G22    29.99R
$$

TXZ143>147-156>162-174-175-200400-
CENTRAL TEXAS

CITY           SKY/WX    TMP DP  RH WIND       PRES   REMARKS
WACO           CLOUDY    52  46  80 S7        30.08S
WACO-TSTC      CLOUDY    54  46  76 S8        30.09R
WACO-MCGREGOR  CLOUDY    51  47  86 S7        30.08S
CORSICANA      CLOUDY    50  43  77 SE7       30.09F
MEXIA          CLOUDY    54  47  77 SE9G16    30.08F
HEARNE         DRIZZLE   55  55 100 SE7       30.11S
CAMERON        CLOUDY    55  53  94 SE7       30.09S FOG
TEMPLE         CLOUDY    50  48  93 S6        30.09S FOG
KILLEEN        CLOUDY    49  47  93 S8        30.06S
KILLEEN-SKYLRK CLOUDY    50  47  89 S8        30.08S
FORT HOOD      CLOUDY    49  46  90 S8        30.04S
GATESVILLE     CLOUDY    50  46  87 S6        30.09S
HAMILTON       CLOUDY    50  50 100 S15       30.05F FOG
LAMPASAS       CLOUDY    48  48  97 S6        30.06S FOG
$$

TXZ095>097-106>112-122>126-135>138-148>153-164>167-200400-
EAST TEXAS

CITY           SKY/WX    TMP DP  RH WIND       PRES   REMARKS
PARIS          CLOUDY    49  33  54 SE9       30.09S
SULPHUR SPRNGS CLOUDY    51  35  53 S5        30.10F
MOUNT PLEASANT MOCLDY    51  36  55 SE9       30.12S
GILMER         CLOUDY    51  38  60 SE8       30.11S
MINEOLA        MOCLDY    52  39  62 SE5       30.10S
TYLER          MOCLDY    51  40  65 SE9       30.10S
LONGVIEW       CLOUDY    51  40  65 SE12      30.12S
MARSHALL       CLOUDY    50  30  46 S3        30.16S
ATHENS         MOCLDY    50  41  71 S8        30.09S
PALESTINE      FAIR      53  46  76 SE5       30.13R
JACKSONVILLE   MOCLDY    51  43  76 S9        30.14S
CENTER         MOCLDY    46  28  48 SE5       30.17S
NACOGDOCHES    CLOUDY    52  43  71 SE6       30.16R
LUFKIN         CLOUDY    53  46  77 SE7       30.15S
$$

SUPPLEMENTAL OBSERVATIONS (NWS FORT WORTH AREA)

CITY           SKY/WX    TMP DP  RH WIND       PRES   REMARKS
DENISON DAM      N/A     50  37  62 S13         N/A
CADDO GRASSLND   N/A     48  34  57 S7          N/A
PAT MAYSE LAKE   N/A     48  28  46 SE10        N/A
LBJ GRASSLAND    N/A     52  46  82 S14         N/A
POSSUM KINGDOM   N/A     54  48  82 S10G23      N/A
GRANBURY         N/A     52  46  82 SE15G23     N/A
COMANCHE         N/A     54  50  87 S18G28      N/A
MCGREGOR         N/A     50  46  87 S6          N/A
TEMPLE           N/A     52  50  93 SE3         N/A
LAKE LIMESTONE   N/A     55  50  82 SE6         N/A
ATHENS           N/A     54  45  71 S10         N/A
$$

SUPPLEMENTAL OBSERVATIONS (NWS NORMAN AREA)

CITY           SKY/WX    TMP DP  RH WIND       PRES   REMARKS
MILLERS CREEK    N/A     52  36  54 S13         N/A
$$

SUPPLEMENTAL OBSERVATIONS (NWS SAN ANGELO AREA)

CITY           SKY/WX    TMP DP  RH WIND       PRES   REMARKS
HAMBY            N/A     54  43  66 S18         N/A
IVIE RESERVOIR   N/A     50  45  81 SE12        N/A
COLORADO BEND    N/A     50  48  93 S9          N/A
$$

SUPPLEMENTAL OBSERVATIONS (NWS SHREVEPORT AREA)

CITY           SKY/WX    TMP DP  RH WIND       PRES   REMARKS
TEXARKANA        N/A     48  27  43 SE2         N/A
LINDEN           N/A     50  30  46 SE5         N/A
CADDO LAKE       N/A     50  28  43 SE2         N/A
HENDERSON        N/A     52  39  62 S6          N/A
LUFKIN           N/A     55  48  76 MISG        N/A
$$

SUPPLEMENTAL OBSERVATIONS ARE A COLLECTION OF AUTOMATED INSTRUMENTS
THAT ARE MAINTAINED BY A VARIETY OF FEDERAL AND STATE AGENCIES.
CERTAIN ELEMENTS...SUCH AS HUMIDITY VALUES AND SUSTAINED WIND
SPEEDS...MAY BE APPROXIMATED.





USA.gov is the U.S. government's official web portal to all federal, state and local government web resources and services.